Regional Weather Roundup
Issued by NWS Midland/Odessa, TX

Skip options and go directly to product.
Home | Oldest Version | Previous Version | Current Version | All | Graphics & Text | Save Text | Print | Product List | Glossary On

Skip product version selection by date and time.   
779
ASUS44 KMAF 051301
RWRMAF
MIDLAND AREA WEATHER ROUNDUP
NATIONAL WEATHER SERVICE MIDLAND TX
800 AM CDT SUN JUL 05 2015

...IN SOUTHWEST TEXAS AND SOUTHEAST NEW MEXICO...

CITY           SKY/WX    TMP DP  RH WIND       PRES   REMARKS
ALPINE         MOSUNNY   71  62  74 SW6       30.17S
ANDREWS        PTSUNNY   72  67  84 SE7       30.06R
ARTESIA        MOSUNNY   72  64  78 SE10      30.05S
BIG SPRING     MOSUNNY   74  67  79 SE12      30.06R
CARLSBAD       SUNNY     73  63  70 SE6       30.02R
DRYDEN           N/A     74  67  78 VRB3      30.01R
FORT STOCKTON  MOSUNNY   73  66  78 SE14      30.03R
GUAD PASS      PTSUNNY   69  61  75 S5        30.17R
HOBBS          SUNNY     68  66  94 SE8       30.08R
MARFA          PTSUNNY  N/A N/A N/A CALM      30.17R
MIDLAND AIRPK  MOSUNNY   75  67  77 SE10      30.04S
MIDLAND INTL   MOSUNNY   74  67  78 SE14      30.04R
ODESSA         MOSUNNY   74  67  78 SE10      30.05R
PECOS          SUNNY     72  64  75 CALM      29.98S
PRESIDIO       NOT AVBL
SEMINOLE       MOSUNNY   67  64  88 SE3       30.07S
SNYDER         MOSUNNY   73  69  87 SE7       30.05S
WINK           SUNNY     74  67  78 SE10      30.00R
$$
...OTHER STATIONS IN TEXAS...

CITY           SKY/WX    TMP DP  RH WIND       PRES   REMARKS
ABILENE        SUNNY     76  69  79 S10       30.05R
AMARILLO       SUNNY     70  61  73 S15       30.06R
AUSTIN         CLOUDY    75  74  96 S5        30.06R
BROWNSVILLE    CLOUDY    81  77  88 SE14      30.01R
CORPUS CHRISTI PTSUNNY   81  77  88 S12       30.02R
DALLAS FTW     MOSUNNY   79  73  82 S14       30.02R
DEL RIO        PTSUNNY   76  68  76 E14       29.99R
EL PASO        PTCLDY    71  66  84 SE7       30.05R
HOUSTON INT    PTSUNNY   80  78  94 SE6       30.07R
LUBBOCK        PTSUNNY   74  66  76 S14       30.06R
SAN ANGELO     SUNNY     75  68  78 S12       30.03R
SAN ANTONIO    PTSUNNY   77  72  84 SE9       30.06R
WACO           SUNNY     78  73  84 S13       30.05R
WICHITA FALLS  NOT AVBL
$$
...OTHER LOCATIONS IN NEW MEXICO...

CITY           SKY/WX    TMP DP  RH WIND       PRES   REMARKS
ALAMAGORDO     SUNNY     66  59  77 SE7       30.07S
ALBUQUERQUE    CLOUDY    66  58  75 E6        30.14S
CANNON AFB     SUNNY     67  63  86 S6        30.09S
CLOVIS         MOSUNNY   64  61  88 SW7         N/A
HOLLOMAN AFB   SUNNY     70  59  68 SE5       30.05R
ROSWELL        MOSUNNY   70  61  73 S7        30.04R
RUIDOSO        PTSUNNY   61  52  72 SW5       30.26S
SANTA FE       MOSUNNY   59  54  83 N3        30.19R
TRUTH OR CONSE PTCLDY    68  63  84 SW3       30.11R
TUCUMCARI      SUNNY     72  61  68 SW6       30.04R
$$

USA.gov is the U.S. government's official web portal to all federal, state and local government web resources and services.